Location: Hermaringen
(48.5952°N, 10.2585°E)
Time: 06:59:02
(UTC+00:00)

Cosmos 44 Rocket - Pass Details

Date: 18 November 2025
Orbit: 637 x 741 km, 65.1° (Epoch: 06 December)

Event Time Altitude Azimuth Distance (km) Brightness Sun altitude
Rises 16:36:40 0° 199° (SSW) 2,980 7.1 -10.0°
Reaches altitude 10° 16:38:59 10° 194° (SSW) 2,087 6.2 -10.4°
Maximum altitude 16:43:32 48° 120° (ESE) 893 3.6 -11.1°
Enters shadow 16:47:35 14° 49° (NE) 1,917 5.0 -11.8°
